Вернуться в каталог

SL-12 DEB *

LostUNKNOWN
NORAD 21657·DEBRIS·🇷🇺 Russia

Запущен Apr 24, 1987 с Baikonur Cosmodrome

Loading…

Ближайшие Пролёты (ближайшие 24 часа)

TLE

УстаревшееSource: Space-Track

Эпоха: Nov 14, 2025, 01:48 UTC

1 21657U 87036M   25318.07500916  .00013246  00000-0  10365+0 0  9992
2 21657  64.8391 307.9472 1613904 351.8711   5.8655 10.45064860112711

Отслеживайте SL-12 DEB * в реальном времени с AllMySat

Download on the App Store